Theta_e
311 309 307 305 302 300 299 297 296 296 296 294 292 291 290 288 286 286 287 287 286 286 286 286 285 285 285 284 284 283 283 283
306 304 302 300 297 296 295 294 293 292 291 290 289 288 288 287 286 286 286 285 285 285 285 284 284 284 284 283 282 281 281 282
294 295 296 294 294 293 292 290 290 289 288 287 287 287 286 285 285 285 285 285 285 284 284 283 283 283 282 281 282 281 280 280
292 292 292 291 291 289 289 288 288 288 286 286 285 285 284 284 284 284 284 284 284 283 282 282 282 282 282 282 281 280 280 279
290 289 289 289 288 287 287 288 287 287 286 285 285 284 284 283 283 283 283 282 282 282 282 281 281 281 281 281 280 280 279 279
287 287 287 286 286 285 285 286 287 286 285 284 284 283 283 283 282 282 282 281 281 281 281 281 281 280 280 280 280 279 279 279
285 285 286 286 285 286 285 285 287 285 283 283 283 282 282 281 281 281 282 282 282 282 282 282 280 281 280 280 279 278 277 277
285 285 285 286 287 285 285 285 284 283 282 282 281 281 281 281 281 281 281 281 281 281 281 281 282 282 281 280 279 278 278 278
286 286 285 285 285 284 284 283 282 281 281 281 281 280 280 280 280 280 280 280 280 280 280 280 280 282 281 280 280 279 279 278
288 286 285 285 284 283 282 281 281 280 280 280 280 279 279 279 279 279 279 279 278 278 278 278 278 279 279 279 279 278 278 278
286 285 284 283 283 281 280 280 280 280 280 280 280 280 279 279 278 279 279 278 278 277 278 278 277 278 278 279 279 277 277 277
286 284 282 282 282 280 280 279 280 280 280 280 280 280 279 278 278 278 277 277 277 276 277 277 277 277 278 278 277 276 276 276
283 282 283 283 282 280 278 279 280 280 279 279 279 279 279 278 278 278 277 277 276 276 276 276 275 276 276 277 277 278 276 276
283 281 282 283 283 279 278 278 278 278 278 278 279 279 279 278 277 277 277 277 276 276 275 274 275 276 276 276 277 277 276 276
282 281 280 281 281 279 279 279 279 277 277 278 277 277 278 278 278 278 277 276 276 275 275 275 275 275 276 277 277 277 276 273
281 281 279 279 278 279 279 279 277 277 276 277 277 277 276 276 276 275 275 277 276 276 275 274 273 274 276 276 275 273 271 268
280 280 278 278 278 279 280 280 278 277 278 278 277 276 276 275 275 278 277 278 277 276 275 275 275 275 275 275 274 273 271 267
279 279 279 278 278 280 281 281 280 279 277 277 276 276 275 275 275 272 275 277 275 275 275 274 273 274 274 273 272 271 269 264
280 279 279 277 276 279 281 280 279 278 276 277 276 276 276 275 275 274 273 271 271 272 271 271 272 272 271 270 269 266 266 263
278 277 276 274 270 273 276 276 276 276 276 276 275 275 274 274 273 273 272 271 269 269 269 267 269 269 268 267 263 261 261 261
Wind_Speed
15 16 14 14 14 15 14 14 13 14 13 12 14 15 15 13 13 11 9 10 10 8 7 8 8 7 8 7 6 7 5 5
11 10 9 15 18 14 17 18 16 14 15 16 16 15 15 14 11 10 10 9 10 9 7 8 7 7 7 7 7 7 6 5
13 12 11 13 16 17 17 18 16 16 13 16 14 16 15 12 11 11 10 10 9 9 8 8 7 6 7 7 5 6 6 6
14 13 12 13 14 16 16 20 18 18 15 14 14 14 14 13 11 10 10 9 9 8 7 7 7 7 6 6 5 6 5 4
13 14 13 14 15 16 15 16 18 18 19 14 14 13 13 11 11 10 9 9 8 7 7 7 7 6 6 5 5 4 4 4
12 13 13 16 14 15 15 14 19 17 18 15 14 13 12 11 11 10 9 9 8 8 7 6 6 4 5 4 4 4 3 3
10 11 14 15 15 17 15 15 17 16 15 14 14 12 10 11 10 10 9 8 7 7 7 6 5 9 7 4 4 3 2 2
12 11 12 13 14 17 14 13 16 15 13 13 12 12 11 10 10 9 9 7 7 6 6 6 6 7 7 4 3 1 2 2
12 14 12 13 14 15 14 15 14 13 13 12 12 11 10 10 9 8 7 6 6 6 5 5 4 4 3 2 2 2 2 3
10 12 11 12 13 14 13 14 12 12 13 12 12 11 9 9 8 7 6 6 5 5 5 4 4 3 2 2 2 2 3 3
12 12 12 10 11 14 12 11 11 12 11 11 11 10 10 9 8 4 5 6 5 6 5 5 4 6 4 3 2 3 3 4
11 11 11 10 11 12 10 11 11 12 12 10 9 9 9 8 6 6 6 6 5 6 5 5 4 4 3 3 4 4 4 5
11 10 9 9 11 11 11 9 11 12 11 10 9 7 7 8 6 6 5 6 4 4 4 3 2 3 3 5 5 6 5 6
11 11 8 8 9 12 8 11 11 11 11 9 9 8 7 7 6 4 4 3 3 3 3 3 2 1 4 4 7 8 6 4
10 11 9 7 9 11 10 11 12 11 9 8 8 8 8 6 3 3 3 3 3 3 2 2 2 2 3 4 4 6 4 4
9 10 9 9 10 9 10 11 11 9 7 8 7 7 6 5 4 4 4 3 2 4 3 2 2 4 7 7 3 3 2 3
9 10 9 10 10 8 8 10 10 8 6 6 6 5 5 5 6 10 8 9 11 9 5 3 6 7 7 5 6 6 6 3
8 8 9 11 10 8 8 8 8 8 7 5 5 5 5 5 5 6 7 10 10 9 9 7 5 6 6 6 9 8 7 2
9 9 9 10 9 6 7 8 9 8 8 5 5 5 4 4 4 4 4 3 3 6 6 6 7 6 7 9 8 3 3 2
10 8 7 8 7 5 6 9 8 7 5 5 5 4 5 5 4 4 4 3 2 1 2 4 7 5 5 6 2 3 4 3
Wind_Direction
176 171 166 147 129 126 117 113 114 114 113 109 105 103 107 104 103 107 114 112 113 100 92 96 95 95 91 84 79 82 71 74
148 137 151 129 118 115 113 113 106 101 105 103 107 105 102 102 106 114 112 118 105 104 109 103 100 93 93 91 86 87 88 78
114 117 126 118 117 116 115 109 102 103 101 105 99 111 107 99 110 110 117 102 108 116 114 105 102 98 97 96 97 97 83 72
117 117 121 113 111 108 115 107 114 109 108 107 106 101 101 107 108 104 102 108 113 112 111 101 101 105 98 98 92 83 81 75
112 114 111 107 108 111 106 119 117 118 107 107 108 109 101 115 112 110 119 113 106 103 101 103 105 104 98 99 99 94 84 65
99 107 108 111 105 98 107 111 113 108 112 111 109 109 117 117 111 117 106 103 115 115 111 110 106 97 101 103 101 91 89 68
84 102 110 103 112 104 104 105 103 108 106 109 105 109 110 107 111 108 112 120 116 113 115 105 101 111 99 88 92 90 64 21
86 84 88 103 111 101 104 106 101 106 110 113 116 113 114 118 116 117 118 123 119 111 115 108 117 122 113 91 80 48 37 357
89 87 86 92 98 103 105 101 106 118 121 115 116 113 114 114 113 108 115 120 119 114 107 104 92 131 139 139 338 328 353 323
87 90 96 104 102 102 100 106 122 117 110 112 116 115 113 108 110 113 115 113 109 102 103 120 116 86 45 349 307 289 298 313
95 98 98 92 96 103 112 116 113 112 112 108 115 118 114 114 111 107 109 105 101 95 89 54 94 49 25 333 300 305 316 308
88 88 96 98 104 103 108 98 106 107 102 104 106 110 109 105 107 115 106 107 105 102 87 75 41 71 29 5 321 325 319 322
97 97 98 108 115 103 94 103 105 104 104 102 99 99 107 108 102 93 106 96 96 96 99 92 80 37 22 355 342 329 325 317
97 99 93 96 116 112 110 105 101 104 106 105 101 99 103 102 92 96 86 106 108 127 122 103 80 17 23 356 342 335 326 6
98 100 97 93 94 109 122 122 113 110 109 108 101 92 83 90 100 118 113 111 123 124 114 91 58 19 359 5 349 337 44 8
91 91 85 91 99 110 118 118 109 110 108 104 97 96 93 72 70 86 47 53 100 74 67 39 54 21 358 354 29 25 38 319
91 100 103 105 106 112 112 113 120 116 110 101 106 121 126 126 100 85 99 82 87 79 75 70 33 2 344 37 4 342 348 301
90 95 100 101 101 103 106 118 125 124 124 124 128 131 133 130 140 124 101 90 68 60 48 32 3 350 350 356 340 324 339 320
82 81 87 91 80 75 112 111 104 106 113 130 121 127 136 128 126 133 143 141 101 55 48 12 359 352 359 344 327 321 316 290
92 91 94 95 71 39 88 109 120 122 109 114 111 103 101 110 108 93 86 81 83 101 143 22 351 330 326 340 325 300 300 310